Location: Newark
(48.6461°N, 4.3644°W)
Time: 19:57:20
(UTC+00:00)

S-56A Canister/Altair - Visible Passes

Search period start: 18 January 2020 00:00
Search period end: 28 January 2020 00:00
Orbit: 634 x 2498 km, 38.9° (Epoch: 18 January)

Date Brightness Start Highest point End Pass type
(mag) Time Alt. Az. Time Alt. Az. Time Alt. Az.
23 Jan 10.1 19:47:17 10° S 19:47:23 10° S 19:47:23 10° S visible
24 Jan 10.0 19:15:00 10° SSE 19:16:18 11° SSE 19:16:41 11° SSE visible
25 Jan 10.0 18:42:56 10° SSE 18:43:41 10° SSE 18:44:24 10° SE visible
25 Jan 10.1 20:42:08 10° SW 20:43:25 14° SSW 20:43:25 14° SSW visible
26 Jan 9.6 20:09:13 10° SW 20:12:41 20° S 20:12:41 20° S visible
27 Jan 9.3 19:36:15 10° SSW 19:41:41 22° SSE 19:41:56 22° SSE visible
